Find Starlink 30571

NORAD ID: 58066 Int'l Des: 2023-158 Owner: SPXS Country: US Constellation: starlink operational
LEOCIRCULAR

Current View

Loading 3D Globe...

About Starlink 30571

Starlink 30571 (NORAD 58066) is a starlink constellation satellite (v2 mini) launched Oct 13, 2023 by SPXS of US. It operates in LEO, CIRCULAR orbit with a mass of 730.00 kg.

Upcoming Passes

Passes for default location (London). Set your location on the main map for personalized predictions.

Altitude History

Loading altitude history...

Two-Line Element Set

1 58066U 23158R 26235.20320612 .00000393 00000-0 23826-4 0 9998
2 58066 43.0045 166.8723 0001330 273.9186 86.1513 15.27575718159039
Epoch: Aug 23, 2026 • Age: 19 hours

Current Status

Altitude 484.6 km
Apogee / Perigee N/A
Velocity 7.63 km/s
Sub-Earth Point 30.91°N, 33.87°W
Launch Date Oct 13, 2023
Age 2.8 years
Type internet

Technical Details

Classification Payload
Mass 730.00 kg
Dry Mass 700.00 kg
Total Mass 730.00 kg
Length 0.30 m
Diameter 4.10 m
Span 29.00 m
Shape Box + pan
Manufacturer SPXS
Bus Type Starlink V2M
Phase Status In Orbit
Owner/State SPXS/US

Most Searched